Weather History for KSDA - January, 2013

Change the Weather History Date:

Monday, January 7, 2013

  Actual Average (WUND) Record (WUND)
Temperature  
Mean Temperature 38 °F -  
Max Temperature 51 °F - - (-1)
Min Temperature 26 °F - - (-1)
Degree Days  
Heating Degree Days 26    
Moisture  
Dew Point 24 °F    
Average Humidity 61    
Maximum Humidity 80    
Minimum Humidity 33    
Precipitation  
Precipitation 0.00 in - - ()
Sea Level Pressure  
Sea Level Pressure 30.06 in    
Wind  
Wind Speed 10 mph (SSW)    
Max Wind Speed 24 mph    
Max Gust Speed 30 mph    
Visibility 10 miles    
Events      
Averages and records for this station are not official NWS values.
T = Trace of Precipitation, MM = Missing Value Source: NWS Daily Summary

Daily Weather History Graph

Daily Weather History Graph

Search for Another Location

Airport or City:

Trip Planner

Search our weather history database for the weather conditions in past years. The results will help you decide how hot, cold, wet, or windy it might be!

Date:

Astronomy

Jan. 07, 2013 Rise Set
Actual Time 7:45 AM CST 5:10 PM CST
Civil Twilight 7:15 AM CST 5:41 PM CST
Nautical Twilight 6:41 AM CST 6:15 PM CST
Astronomical Twilight 6:07 AM CST 6:48 PM CST
Moon 3:10 AM CST (1/7) 1:22 PM CST (1/7)
Length of Visible Light 10h 26m
Length of Day
9h 24m
Waning Crescent, 22% of the Moon is Illuminated
Jan 7
Waning Crescent
Jan 11
New
Jan 18
First Quarter
Jan 26
Full
Feb 3
Last Quarter

Hourly Weather History & Observations

Time (CST) Temp. Windchill Dew Point Humidity Pressure Visibility Wind Dir Wind Speed Gust Speed Precip Events Conditions
12:15 AM 30.2 °F 21.3 °F 21.2 °F 69% 30.18 in 10.0 mi South 10.4 mph - N/A   Scattered Clouds
12:35 AM 30.2 °F 21.9 °F 21.2 °F 69% 30.18 in 10.0 mi South 9.2 mph - N/A   Scattered Clouds
12:55 AM 30.2 °F 22.6 °F 21.2 °F 69% 30.18 in 10.0 mi South 8.1 mph - N/A   Clear
1:15 AM 28.4 °F 21.2 °F 19.4 °F 69% 30.17 in 10.0 mi South 6.9 mph - N/A   Scattered Clouds
1:35 AM 30.2 °F 21.3 °F 21.2 °F 69% 30.17 in 10.0 mi South 10.4 mph - N/A   Scattered Clouds
1:55 AM 32.0 °F 22.1 °F 21.2 °F 64% 30.16 in 10.0 mi South 13.8 mph - N/A   Scattered Clouds
2:15 AM 32.0 °F 23.0 °F 21.2 °F 64% 30.16 in 10.0 mi South 11.5 mph - N/A   Scattered Clouds
2:35 AM 30.2 °F 21.3 °F 21.2 °F 69% 30.17 in 10.0 mi South 10.4 mph - N/A   Scattered Clouds
2:55 AM 30.2 °F 21.3 °F 21.2 °F 69% 30.16 in 10.0 mi South 10.4 mph - N/A   Scattered Clouds
3:15 AM 30.2 °F 21.9 °F 21.2 °F 69% 30.16 in 10.0 mi South 9.2 mph - N/A   Scattered Clouds
3:35 AM 30.2 °F 23.4 °F 21.2 °F 69% 30.16 in 10.0 mi South 6.9 mph - N/A   Scattered Clouds
3:55 AM 28.4 °F 20.4 °F 19.4 °F 69% 30.15 in 10.0 mi SSW 8.1 mph - N/A   Scattered Clouds
4:15 AM 28.4 °F 23.3 °F 19.4 °F 69% 30.15 in 10.0 mi South 4.6 mph - N/A   Scattered Clouds
4:35 AM 28.4 °F 24.6 °F 19.4 °F 69% 30.14 in 10.0 mi South 3.5 mph - N/A   Scattered Clouds
4:55 AM 28.4 °F 21.2 °F 19.4 °F 69% 30.13 in 10.0 mi South 6.9 mph - N/A   Scattered Clouds
5:15 AM 28.4 °F 19.1 °F 21.2 °F 74% 30.12 in 10.0 mi South 10.4 mph - N/A   Scattered Clouds
5:35 AM 30.2 °F 19.8 °F 21.2 °F 69% 30.11 in 10.0 mi South 13.8 mph 18.4 mph N/A   Scattered Clouds
6:15 AM 32.0 °F 22.1 °F 21.2 °F 64% 30.09 in 10.0 mi South 13.8 mph - N/A   Scattered Clouds
6:35 AM 32.0 °F 21.6 °F 21.2 °F 64% 30.08 in 10.0 mi South 15.0 mph 20.7 mph N/A   Scattered Clouds
6:55 AM 33.8 °F 23.2 °F 21.2 °F 60% 30.08 in 10.0 mi South 17.3 mph - N/A   Scattered Clouds
7:15 AM 33.8 °F 21.6 °F 21.2 °F 60% 30.05 in 10.0 mi South 23.0 mph 27.6 mph N/A   Scattered Clouds
7:35 AM 35.6 °F 24.5 °F 21.2 °F 56% 30.07 in 10.0 mi South 20.7 mph 25.3 mph N/A   Scattered Clouds
7:55 AM 33.8 °F 24.8 °F 21.2 °F 60% 30.07 in 10.0 mi South 12.7 mph - N/A   Clear
8:35 AM 35.6 °F 29.2 °F 23.0 °F 60% 30.09 in 10.0 mi South 8.1 mph - N/A   Clear
8:55 AM 35.6 °F 31.7 °F 23.0 °F 60% 30.08 in 10.0 mi SSW 4.6 mph - N/A   Clear
9:15 AM 39.2 °F 31.6 °F 24.8 °F 56% 30.07 in 10.0 mi South 12.7 mph - N/A   Clear
9:35 AM 42.8 °F 35.1 °F 24.8 °F 49% 30.08 in 10.0 mi SSW 16.1 mph 23.0 mph N/A   Clear
9:55 AM 44.6 °F 38.8 °F 24.8 °F 46% 30.09 in 10.0 mi SW 11.5 mph - N/A   Clear
10:15 AM 44.6 °F 38.1 °F 24.8 °F 46% 30.09 in 10.0 mi SSW 13.8 mph - N/A   Clear
10:35 AM 46.4 °F 40.1 °F 24.8 °F 43% 30.09 in 10.0 mi SSW 15.0 mph - N/A   Clear
10:55 AM 46.4 °F 39.5 °F 24.8 °F 43% 30.08 in 10.0 mi SW 17.3 mph - N/A   Clear
11:15 AM 48.2 °F - 24.8 °F 40% 30.07 in 10.0 mi SW 23.0 mph 27.6 mph N/A   Clear
11:35 AM 48.2 °F - 24.8 °F 40% 30.06 in 10.0 mi SW 21.9 mph - N/A   Clear
11:55 AM 48.2 °F - 24.8 °F 40% 30.04 in 10.0 mi SW 16.1 mph 26.5 mph N/A   Clear
12:35 PM 50.0 °F - 24.8 °F 37% 30.02 in 10.0 mi SW 19.6 mph - N/A   Clear
12:55 PM 50.0 °F - 24.8 °F 37% 30.01 in 10.0 mi SW 18.4 mph - N/A   Clear
1:15 PM 51.8 °F - 23.0 °F 33% 30.00 in 10.0 mi WSW 24.2 mph 29.9 mph N/A   Clear
1:35 PM 51.8 °F - 23.0 °F 33% 30.01 in 10.0 mi WSW 23.0 mph 26.5 mph N/A   Clear
1:55 PM 51.8 °F - 23.0 °F 33% 30.00 in 10.0 mi WSW 24.2 mph 27.6 mph N/A   Clear
2:15 PM 51.8 °F - 23.0 °F 33% 30.01 in 10.0 mi SW 20.7 mph 26.5 mph N/A   Scattered Clouds
2:35 PM 50.0 °F - 24.8 °F 37% 30.01 in 10.0 mi WSW 15.0 mph - N/A   Scattered Clouds
2:55 PM 48.2 °F - 24.8 °F 40% 30.01 in 10.0 mi West 11.5 mph - N/A   Clear
3:15 PM 48.2 °F - 24.8 °F 40% 30.01 in 10.0 mi West 15.0 mph - N/A   Clear
3:35 PM 48.2 °F - 26.6 °F 43% 30.02 in 10.0 mi West 9.2 mph - N/A   Clear
3:55 PM 46.4 °F 42.4 °F 28.4 °F 50% 30.02 in 10.0 mi West 8.1 mph - N/A   Clear
4:15 PM 44.6 °F 42.2 °F 28.4 °F 53% 30.02 in 10.0 mi West 4.6 mph - N/A   Clear
4:35 PM 44.6 °F 43.1 °F 28.4 °F 53% 30.02 in 10.0 mi West 3.5 mph - N/A   Clear
5:15 PM 42.8 °F - 26.6 °F 53% 30.01 in 10.0 mi Calm Calm - N/A   Clear
5:35 PM 39.2 °F 35.9 °F 26.6 °F 61% 30.00 in 10.0 mi SSW 4.6 mph - N/A   Clear
5:55 PM 39.2 °F - 26.6 °F 61% 30.01 in 10.0 mi Calm Calm - N/A   Scattered Clouds
6:15 PM 35.6 °F - 26.6 °F 70% 30.01 in 10.0 mi Calm Calm - N/A   Scattered Clouds
6:35 PM 37.4 °F - 26.6 °F 65% 30.02 in 10.0 mi Calm Calm - N/A   Scattered Clouds
6:55 PM 33.8 °F - 26.6 °F 75% 30.02 in 10.0 mi Calm Calm - N/A   Scattered Clouds
7:15 PM 33.8 °F 30.8 °F 26.6 °F 75% 30.02 in 10.0 mi East 3.5 mph - N/A   Scattered Clouds
7:35 PM 33.8 °F - 24.8 °F 70% 30.02 in 10.0 mi Calm Calm - N/A   Scattered Clouds
7:55 PM 30.2 °F 24.3 °F 24.8 °F 80% 30.02 in 10.0 mi SE 5.8 mph - N/A   Scattered Clouds
8:15 PM 30.2 °F - 24.8 °F 80% 30.01 in 10.0 mi Calm Calm - N/A   Scattered Clouds
8:35 PM 32.0 °F - 26.6 °F 80% 30.01 in 10.0 mi Calm Calm - N/A   Scattered Clouds
8:55 PM 30.2 °F 25.4 °F 24.8 °F 80% 30.01 in 10.0 mi NE 4.6 mph - N/A   Scattered Clouds
9:15 PM 30.2 °F 24.3 °F 24.8 °F 80% 30.01 in 10.0 mi ENE 5.8 mph - N/A   Scattered Clouds
9:35 PM 28.4 °F 22.2 °F 21.2 °F 74% 30.00 in 10.0 mi NE 5.8 mph - N/A   Scattered Clouds
9:55 PM 28.4 °F 24.6 °F 21.2 °F 74% 29.99 in 10.0 mi ESE 3.5 mph - N/A   Scattered Clouds
10:15 PM 26.6 °F - 21.2 °F 80% 29.99 in 10.0 mi Calm Calm - N/A   Scattered Clouds
10:35 PM 30.2 °F 24.3 °F 24.8 °F 80% 29.99 in 10.0 mi SE 5.8 mph - N/A   Scattered Clouds
10:55 PM 30.2 °F 24.3 °F 24.8 °F 80% 29.99 in 10.0 mi SE 5.8 mph - N/A   Clear
11:15 PM 30.2 °F 24.3 °F 24.8 °F 80% 29.99 in 10.0 mi SSE 5.8 mph - N/A   Scattered Clouds
11:35 PM 32.0 °F 26.4 °F 24.8 °F 75% 29.98 in 10.0 mi SSE 5.8 mph - N/A   Scattered Clouds
11:55 PM 30.2 °F - 24.8 °F 80% 29.98 in 10.0 mi Calm Calm - N/A   Scattered Clouds